Regional Weather Roundup
Issued by NWS Newport/Morehead, NC

Current Version | Previous Version | Text Only | Print | Product List | Glossary Off
Versions: 1 2 3 4 5 6 7 8 9 10 11 12 13 14 15 16 17 18 19 20 21 22 23 24 25 26 27 28 29 30 31 32 33 34 35 36 37 38 39 40 41 42 43 44 45 46 47 48 49 50

000
ASUS42 KMHX 140625
RWRMHX
WEATHER ROUNDUP FOR EASTERN NORTH CAROLINA
NATIONAL WEATHER SERVICE NEWPORT/MOREHEAD CITY NC
100 AM EST SUN FEB 14 2016

NOTE: "FAIR" INDICATES FEW OR NO CLOUDS BELOW 12,000 FEET
WITH NO SIGNIFICANT WEATHER AND/OR OBSTRUCTIONS TO VISIBILITY

NCZ015>017-031-032-045>047-102-103-140700-
NORTH COAST

CITY           SKY/WX    TMP DP  RH WIND       PRES   REMARKS
EDENTON        CLEAR     22   0  38 N7        30.45S
ELIZABETH CITY CLEAR     20   3  48 N15G41    30.45R WCI   6
KITTY HAWK     CLEAR     22   2  41 NW10G18   30.42R WCI  11
MANTEO         CLEAR     23   8  51 N14G20    30.43R WCI  11

$$

NCZ045>047-081-094-103-104-140700-
CENTRAL COAST

CITY           SKY/WX    TMP DP  RH WIND       PRES   REMARKS
FRISCO         CLEAR     28   9  44 N6        30.39S
SWANQUARTER      N/A     21 N/A N/A N5        30.39S

$$

NCZ095-097-098-100-101-140700-
SOUTHERN COAST

CITY           SKY/WX    TMP DP  RH WIND       PRES   REMARKS
BEAUFORT       CLEAR     25   4  40 N13       30.41F WCI  14
CEDAR ISLAND     N/A     28 N/A N/A N25G32    30.44S WCI  14
JACKSONVILLE   CLEAR     25   4  40 N13       30.42R WCI  14
PINEY ISLAND   CLEAR    N/A N/A N/A N16G26    30.41R
WILMINGTON     CLEAR     27   5  39 NE6       30.42R


$$

NCZ011>013-027>030-043-044-078>080-089-090>093-098-140700-
COASTAL PLAIN

CITY           SKY/WX    TMP DP  RH WIND       PRES   REMARKS
AHOSKIE        PTCLDY    18   0  45 N5        30.47R
CLINTON        CLEAR     25   5  42 N9G16     30.43R
ELIZABETHTOWN  CLEAR     26   4  40 CALM      30.43R
GOLDSBORO      CLEAR     23  -2  33 N7        30.43R
GREENVILLE     CLEAR     23   3  42 N5        30.44S
HAVELOCK       CLEAR     26   3  37 N14       30.42S WCI  14
KENANSVILLE    CLEAR     24   2  38 N8        30.44R
KINSTON        PTCLDY    24   0  34 N9        30.45R
NEW BERN       CLEAR     25   2  37 N12       30.44R WCI  14
RICHLANDS      CLEAR     25   1  36 N12G17    30.42S WCI  14
ROCKY MOUNT    CLEAR     22  -2  35 N10       30.45R WCI  11
WASHINGTON     CLEAR     22   3  44 NW6       30.44S
WHITEVILLE     PTCLDY    28   5  37 CALM      30.43R

$$

AMZ130-135-150-152-154-156-158-170-250-252-270-ANZ085-086-088-633-658-670-140700-
MARINE OBSERVATIONS

STATION/POSITION TIME  TEMP    WIND        PRES    WAVE   SWELL
                       AIR SEA DIR/SP/G            HT/PER HT/PER
                 (UTC) (F)     (DEG/KT/KT) (MB)    (FT/S) (FT/S)
CHESAPEAKE LIGHT 0600   20     330/ 28/ 33 1030.9
64 E VA BEACH    0550   26 50  330/ 25/ 33 1028.6    9/ 8   2/11
DUCK             0600   23     330/ 19/ 23 1029.7
2 E DUCK         0611      42                N/A     5/ 7
OREGON INLET     0600   24 37  320/ 13/ 18 1030.0
13E OREGON INLT  0600      44                N/A     8/ 7   2/11
HATTERAS CG      0600   29 41  360/ 19/ 23 1028.7
DIAMOND BUOY     0550   33 72  350/ 19/ 29 1028.3    6/ 5
CAPE LOOKOUT     NOT AVBL
BEAUFORT LAB     0600   27 43  360/ 16/ 18 1028.6
30 SE NEW RVR IN 0608   34 61              1028.3
30 SE NEW RVR IN 0525      61                N/A     5/ 5
27 SE WRIGHTSVLE 0608   35 59   30/ 19/ 27 1027.8
5 SE WRIGHTSVLE  0508   33 50   30/ 21/ 29 1029.3
225 S CAPE HAT   0550   48 68  340/ 17/ 23   N/A     8/ 8   5/ 8
41 SE CHARLESTON 0550   46 66   20/ 14/ 19 1027.2    4/ 5   2/ 8

$$



USA.gov is the U.S. government's official web portal to all federal, state and local government web resources and services.